Time,TemperatureF,DewpointF,PressureIn,WindDirection,WindDirectionDegrees,WindSpeedMPH,WindSpeedGustMPH,Humidity,HourlyPrecipIn,Conditions,Clouds,dailyrainin,SoftwareType,DateUTC
2013-02-21 00:00:00,33.6,33.1,29.41,WNW,284,4.0,4.0,98,0.00,,,0.01,Wunderground v.1.15,2013-02-21 04:00:00,
2013-02-21 00:05:00,33.5,33.0,29.42,West,266,4.0,4.0,98,0.00,,,0.00,Wunderground v.1.15,2013-02-21 04:05:00,
2013-02-21 00:10:00,33.4,32.9,29.42,WSW,253,3.0,3.0,98,0.00,,,0.00,Wunderground v.1.15,2013-02-21 04:10:00,
2013-02-21 00:15:00,33.4,32.9,29.42,SW,229,2.0,3.0,98,0.00,,,0.00,Wunderground v.1.15,2013-02-21 04:15:00,
2013-02-21 00:20:00,33.3,32.8,29.42,WSW,239,3.0,6.0,98,0.00,,,0.00,Wunderground v.1.15,2013-02-21 04:20:00,
2013-02-21 00:25:00,33.2,32.7,29.42,WSW,242,3.0,6.0,98,0.00,,,0.00,Wunderground v.1.15,2013-02-21 04:25:00,
2013-02-21 00:30:00,33.1,32.6,29.42,WSW,250,3.0,4.0,98,0.00,,,0.00,Wunderground v.1.15,2013-02-21 04:30:00,
2013-02-21 00:40:00,33.1,32.6,29.42,West,262,5.0,5.0,98,0.00,,,0.00,Wunderground v.1.15,2013-02-21 04:40:00,
2013-02-21 00:45:00,33.0,32.5,29.42,West,259,4.0,5.0,98,0.00,,,0.00,Wunderground v.1.15,2013-02-21 04:45:00,
2013-02-21 00:55:00,33.0,32.5,29.42,WSW,254,5.0,5.0,98,0.00,,,0.00,Wunderground v.1.15,2013-02-21 04:55:00,
2013-02-21 01:00:00,33.0,32.5,29.41,West,261,6.0,6.0,98,0.00,,,0.00,Wunderground v.1.15,2013-02-21 05:00:00,
2013-02-21 01:05:00,32.9,32.4,29.41,WSW,244,6.0,6.0,98,0.00,,,0.00,Wunderground v.1.15,2013-02-21 05:05:00,
2013-02-21 01:10:00,32.9,32.4,29.42,WSW,244,6.0,6.0,98,0.00,,,0.00,Wunderground v.1.15,2013-02-21 05:10:00,
2013-02-21 01:15:00,32.8,32.3,29.42,SSW,207,4.0,6.0,98,0.00,,,0.00,Wunderground v.1.15,2013-02-21 05:15:00,
2013-02-21 01:20:00,32.8,32.3,29.42,WSW,238,3.0,3.0,98,0.00,,,0.00,Wunderground v.1.15,2013-02-21 05:20:00,
2013-02-21 01:25:00,32.8,32.3,29.42,WSW,250,3.0,3.0,98,0.00,,,0.00,Wunderground v.1.15,2013-02-21 05:25:00,
2013-02-21 01:30:00,32.7,32.2,29.42,WSW,253,4.0,4.0,98,0.00,,,0.00,Wunderground v.1.15,2013-02-21 05:30:00,
2013-02-21 01:40:00,32.7,32.2,29.42,West,259,4.0,4.0,98,0.00,,,0.00,Wunderground v.1.15,2013-02-21 05:40:00,
2013-02-21 01:45:00,32.7,32.2,29.42,WSW,238,4.0,4.0,98,0.00,,,0.00,Wunderground v.1.15,2013-02-21 05:45:00,
2013-02-21 01:50:00,32.7,32.2,29.43,WSW,258,3.0,3.0,98,0.00,,,0.00,Wunderground v.1.15,2013-02-21 05:50:00,
2013-02-21 01:55:00,32.7,32.2,29.43,WSW,240,2.0,3.0,98,0.00,,,0.00,Wunderground v.1.15,2013-02-21 05:55:00,
2013-02-21 02:00:00,32.7,32.2,29.43,SW,236,2.0,2.0,98,0.00,,,0.00,Wunderground v.1.15,2013-02-21 06:00:00,
2013-02-21 02:05:00,32.6,32.1,29.44,West,261,1.0,2.0,98,0.00,,,0.00,Wunderground v.1.15,2013-02-21 06:05:00,
2013-02-21 02:10:00,32.6,32.1,29.43,West,261,1.0,1.0,98,0.00,,,0.00,Wunderground v.1.15,2013-02-21 06:10:00,
2013-02-21 02:15:00,32.6,32.1,29.43,SW,219,1.0,2.0,98,0.00,,,0.00,Wunderground v.1.15,2013-02-21 06:15:00,
2013-02-21 02:20:00,32.5,32.0,29.44,SW,218,1.0,1.0,98,0.00,,,0.00,Wunderground v.1.15,2013-02-21 06:20:00,
2013-02-21 02:25:00,32.5,32.0,29.44,SW,227,1.0,1.0,98,0.00,,,0.00,Wunderground v.1.15,2013-02-21 06:25:00,
2013-02-21 02:30:00,32.5,32.0,29.44,SW,217,0.0,2.0,98,0.00,,,0.00,Wunderground v.1.15,2013-02-21 06:30:00,
2013-02-21 02:35:00,32.5,32.0,29.44,SW,217,1.0,2.0,98,0.00,,,0.00,Wunderground v.1.15,2013-02-21 06:35:00,
2013-02-21 02:40:00,32.4,31.9,29.44,West,262,1.0,3.0,98,0.00,,,0.00,Wunderground v.1.15,2013-02-21 06:40:00,
2013-02-21 02:50:00,32.4,31.9,29.44,WSW,240,1.0,2.0,98,0.00,,,0.00,Wunderground v.1.15,2013-02-21 06:50:00,
2013-02-21 02:55:00,32.3,31.8,29.44,WSW,257,1.0,3.0,98,0.00,,,0.00,Wunderground v.1.15,2013-02-21 06:55:00,
2013-02-21 03:05:00,32.3,31.8,29.43,WSW,256,3.0,3.0,98,0.00,,,0.00,Wunderground v.1.15,2013-02-21 07:05:00,
2013-02-21 03:10:00,32.3,31.8,29.44,SW,234,3.0,3.0,98,0.00,,,0.00,Wunderground v.1.15,2013-02-21 07:10:00,
2013-02-21 03:15:00,32.2,31.4,29.44,WSW,254,3.0,5.0,97,0.00,,,0.00,Wunderground v.1.15,2013-02-21 07:15:00,
2013-02-21 03:20:00,32.1,31.3,29.44,SW,231,3.0,4.0,97,0.00,,,0.00,Wunderground v.1.15,2013-02-21 07:20:00,
2013-02-21 03:25:00,32.1,31.3,29.44,WSW,252,4.0,6.0,97,0.00,,,0.00,Wunderground v.1.15,2013-02-21 07:25:00,
2013-02-21 03:35:00,32.0,31.2,29.43,WSW,250,4.0,5.0,97,0.00,,,0.00,Wunderground v.1.15,2013-02-21 07:35:00,
2013-02-21 03:40:00,32.0,31.2,29.44,WSW,254,3.0,3.0,97,0.00,,,0.00,Wunderground v.1.15,2013-02-21 07:40:00,
2013-02-21 03:45:00,31.9,31.1,29.44,SSW,211,2.0,3.0,97,0.00,,,0.00,Wunderground v.1.15,2013-02-21 07:45:00,
2013-02-21 03:50:00,31.9,30.9,29.44,SW,231,2.0,2.0,96,0.00,,,0.00,Wunderground v.1.15,2013-02-21 07:50:00,
2013-02-21 03:55:00,31.9,30.9,29.44,WSW,243,2.0,2.0,96,0.00,,,0.00,Wunderground v.1.15,2013-02-21 07:55:00,
2013-02-21 04:00:00,31.8,30.8,29.44,SW,233,2.0,2.0,96,0.00,,,0.00,Wunderground v.1.15,2013-02-21 08:00:00,
2013-02-21 04:05:00,31.7,30.7,29.44,WSW,257,2.0,4.0,96,0.00,,,0.00,Wunderground v.1.15,2013-02-21 08:05:00,
2013-02-21 04:10:00,31.7,30.7,29.44,WSW,248,2.0,2.0,96,0.00,,,0.00,Wunderground v.1.15,2013-02-21 08:10:00,
2013-02-21 04:15:00,31.7,30.7,29.45,WSW,238,3.0,3.0,96,0.00,,,0.00,Wunderground v.1.15,2013-02-21 08:15:00,
2013-02-21 04:25:00,31.7,30.4,29.45,WSW,252,3.0,5.0,95,0.00,,,0.00,Wunderground v.1.15,2013-02-21 08:25:00,
2013-02-21 04:30:00,31.6,30.3,29.45,WSW,251,3.0,5.0,95,0.00,,,0.00,Wunderground v.1.15,2013-02-21 08:30:00,
2013-02-21 04:35:00,31.6,30.3,29.45,WSW,249,4.0,5.0,95,0.00,,,0.00,Wunderground v.1.15,2013-02-21 08:35:00,
2013-02-21 04:40:00,31.6,30.3,29.44,WSW,249,3.0,4.0,95,0.00,,,0.00,Wunderground v.1.15,2013-02-21 08:40:00,
2013-02-21 04:45:00,31.5,30.2,29.44,West,264,3.0,4.0,95,0.00,,,0.00,Wunderground v.1.15,2013-02-21 08:45:00,
2013-02-21 04:50:00,31.5,30.5,29.44,West,261,2.0,3.0,96,0.00,,,0.00,Wunderground v.1.15,2013-02-21 08:50:00,
2013-02-21 04:55:00,31.5,30.2,29.44,WSW,247,2.0,3.0,95,0.00,,,0.00,Wunderground v.1.15,2013-02-21 08:55:00,
2013-02-21 05:05:00,31.3,30.3,29.45,West,263,1.0,2.0,96,0.00,,,0.00,Wunderground v.1.15,2013-02-21 09:05:00,
2013-02-21 05:10:00,31.2,30.2,29.45,West,263,0.0,0.0,96,0.00,,,0.00,Wunderground v.1.15,2013-02-21 09:10:00,
2013-02-21 05:15:00,31.2,30.2,29.45,West,263,0.0,0.0,96,0.00,,,0.00,Wunderground v.1.15,2013-02-21 09:15:00,
2013-02-21 05:25:00,31.0,30.2,29.45,West,263,0.0,0.0,97,0.00,,,0.00,Wunderground v.1.15,2013-02-21 09:25:00,
2013-02-21 05:30:00,31.0,30.2,29.45,West,263,0.0,0.0,97,0.00,,,0.00,Wunderground v.1.15,2013-02-21 09:30:00,
2013-02-21 05:35:00,31.0,30.2,29.46,West,263,0.0,0.0,97,0.00,,,0.00,Wunderground v.1.15,2013-02-21 09:35:00,
2013-02-21 05:40:00,31.1,30.3,29.46,West,263,0.0,0.0,97,0.00,,,0.00,Wunderground v.1.15,2013-02-21 09:40:00,
2013-02-21 05:45:00,31.1,30.3,29.46,West,263,0.0,0.0,97,0.00,,,0.00,Wunderground v.1.15,2013-02-21 09:45:00,
2013-02-21 05:50:00,31.1,30.3,29.46,West,261,0.0,1.0,97,0.00,,,0.00,Wunderground v.1.15,2013-02-21 09:50:00,
2013-02-21 05:55:00,31.1,30.3,29.46,West,261,0.0,1.0,97,0.00,,,0.00,Wunderground v.1.15,2013-02-21 09:55:00,
2013-02-21 06:00:00,31.1,30.3,29.46,West,261,0.0,0.0,97,0.00,,,0.00,Wunderground v.1.15,2013-02-21 10:00:00,
2013-02-21 06:05:00,31.1,30.3,29.46,West,262,0.0,1.0,97,0.00,,,0.00,Wunderground v.1.15,2013-02-21 10:05:00,
2013-02-21 06:10:00,31.2,30.4,29.46,West,261,0.0,2.0,97,0.00,,,0.00,Wunderground v.1.15,2013-02-21 10:10:00,
2013-02-21 06:15:00,31.2,30.4,29.46,West,261,1.0,2.0,97,0.00,,,0.00,Wunderground v.1.15,2013-02-21 10:15:00,
2013-02-21 06:20:00,31.1,30.3,29.46,West,261,1.0,1.0,97,0.00,,,0.00,Wunderground v.1.15,2013-02-21 10:20:00,
2013-02-21 06:30:00,31.2,30.4,29.46,West,261,1.0,1.0,97,0.00,,,0.00,Wunderground v.1.15,2013-02-21 10:30:00,
2013-02-21 06:35:00,31.2,30.4,29.46,West,261,0.0,1.0,97,0.00,,,0.00,Wunderground v.1.15,2013-02-21 10:35:00,
2013-02-21 06:40:00,31.2,30.4,29.46,West,261,0.0,0.0,97,0.00,,,0.00,Wunderground v.1.15,2013-02-21 10:40:00,
2013-02-21 06:45:00,31.2,30.7,29.46,West,261,1.0,2.0,98,0.00,,,0.00,Wunderground v.1.15,2013-02-21 10:45:00,
2013-02-21 06:50:00,31.2,30.7,29.46,West,261,1.0,1.0,98,0.00,,,0.00,Wunderground v.1.15,2013-02-21 10:50:00,
2013-02-21 06:55:00,31.2,30.7,29.46,West,261,0.0,1.0,98,0.00,,,0.00,Wunderground v.1.15,2013-02-21 10:55:00,
2013-02-21 07:00:00,31.2,30.7,29.47,West,261,0.0,1.0,98,0.00,,,0.00,Wunderground v.1.15,2013-02-21 11:00:00,
2013-02-21 07:05:00,31.2,30.7,29.47,SW,236,1.0,2.0,98,0.00,,,0.00,Wunderground v.1.15,2013-02-21 11:05:00,
2013-02-21 07:15:00,31.1,30.6,29.47,WSW,249,4.0,6.0,98,0.00,,,0.00,Wunderground v.1.15,2013-02-21 11:15:00,
2013-02-21 07:20:00,31.1,30.6,29.47,WNW,287,5.0,5.0,98,0.00,,,0.00,Wunderground v.1.15,2013-02-21 11:20:00,
2013-02-21 07:25:00,31.1,30.6,29.47,West,262,3.0,5.0,98,0.00,,,0.00,Wunderground v.1.15,2013-02-21 11:25:00,
2013-02-21 07:35:00,31.1,30.6,29.48,WNW,294,3.0,5.0,98,0.00,,,0.00,Wunderground v.1.15,2013-02-21 11:35:00,
2013-02-21 07:40:00,31.1,30.6,29.48,WNW,298,4.0,4.0,98,0.00,,,0.00,Wunderground v.1.15,2013-02-21 11:40:00,
2013-02-21 07:45:00,31.1,30.6,29.48,NW,322,5.0,5.0,98,0.00,,,0.00,Wunderground v.1.15,2013-02-21 11:45:00,
2013-02-21 07:50:00,31.1,30.6,29.49,NNW,327,4.0,4.0,98,0.00,,,0.00,Wunderground v.1.15,2013-02-21 11:50:00,
2013-02-21 08:00:00,31.3,30.8,29.49,NW,317,3.0,5.0,98,0.00,,,0.00,Wunderground v.1.15,2013-02-21 12:00:00,
2013-02-21 08:05:00,31.4,30.9,29.49,NNW,328,3.0,5.0,98,0.00,,,0.00,Wunderground v.1.15,2013-02-21 12:05:00,
2013-02-21 08:10:00,31.5,30.7,29.49,WNW,296,4.0,4.0,97,0.00,,,0.00,Wunderground v.1.15,2013-02-21 12:10:00,
2013-02-21 08:20:00,31.7,30.9,29.49,West,278,3.0,3.0,97,0.00,,,0.00,Wunderground v.1.15,2013-02-21 12:20:00,
2013-02-21 08:25:00,31.7,30.9,29.49,WNW,295,3.0,3.0,97,0.00,,,0.00,Wunderground v.1.15,2013-02-21 12:25:00,
2013-02-21 08:30:00,31.8,31.0,29.49,WNW,288,3.0,3.0,97,0.00,,,0.00,Wunderground v.1.15,2013-02-21 12:30:00,
2013-02-21 08:35:00,31.7,30.9,29.50,NNW,341,3.0,3.0,97,0.00,,,0.00,Wunderground v.1.15,2013-02-21 12:35:00,
2013-02-21 08:40:00,31.8,31.0,29.50,NW,317,3.0,3.0,97,0.00,,,0.00,Wunderground v.1.15,2013-02-21 12:40:00,
2013-02-21 08:45:00,31.9,31.1,29.50,WNW,299,3.0,3.0,97,0.00,,,0.00,Wunderground v.1.15,2013-02-21 12:45:00,
2013-02-21 08:50:00,31.9,31.1,29.50,NW,322,3.0,3.0,97,0.00,,,0.00,Wunderground v.1.15,2013-02-21 12:50:00,
2013-02-21 08:55:00,32.0,31.2,29.50,NW,319,3.0,3.0,97,0.00,,,0.00,Wunderground v.1.15,2013-02-21 12:55:00,
2013-02-21 09:00:00,32.1,31.3,29.51,NW,308,2.0,2.0,97,0.00,,,0.00,Wunderground v.1.15,2013-02-21 13:00:00,
2013-02-21 09:05:00,32.2,31.4,29.50,NW,324,2.0,3.0,97,0.00,,,0.00,Wunderground v.1.15,2013-02-21 13:05:00,
2013-02-21 09:10:00,32.2,31.2,29.51,NW,317,2.0,4.0,96,0.00,,,0.00,Wunderground v.1.15,2013-02-21 13:10:00,
2013-02-21 09:15:00,32.2,31.2,29.51,NW,313,3.0,4.0,96,0.00,,,0.00,Wunderground v.1.15,2013-02-21 13:15:00,
2013-02-21 09:20:00,32.2,31.2,29.51,WNW,292,3.0,3.0,96,0.00,,,0.00,Wunderground v.1.15,2013-02-21 13:20:00,
2013-02-21 09:25:00,32.2,31.2,29.51,WNW,288,3.0,4.0,96,0.00,,,0.00,Wunderground v.1.15,2013-02-21 13:25:00,
2013-02-21 09:30:00,32.1,31.1,29.51,NW,321,4.0,4.0,96,0.00,,,0.00,Wunderground v.1.15,2013-02-21 13:30:00,
2013-02-21 09:35:00,32.3,31.3,29.51,WNW,302,3.0,4.0,96,0.00,,,0.00,Wunderground v.1.15,2013-02-21 13:35:00,
2013-02-21 09:40:00,32.4,31.4,29.51,NW,313,3.0,3.0,96,0.00,,,0.00,Wunderground v.1.15,2013-02-21 13:40:00,
2013-02-21 09:45:00,32.5,31.5,29.52,NW,308,2.0,4.0,96,0.00,,,0.00,Wunderground v.1.15,2013-02-21 13:45:00,
2013-02-21 09:50:00,32.6,31.6,29.52,NW,306,2.0,2.0,96,0.00,,,0.00,Wunderground v.1.15,2013-02-21 13:50:00,
2013-02-21 09:55:00,32.7,31.4,29.52,WNW,301,3.0,3.0,95,0.00,,,0.00,Wunderground v.1.15,2013-02-21 13:55:00,
2013-02-21 10:00:00,32.7,31.4,29.52,NW,309,3.0,3.0,95,0.00,,,0.00,Wunderground v.1.15,2013-02-21 14:00:00,
2013-02-21 10:05:00,32.9,31.6,29.52,WNW,303,2.0,3.0,95,0.00,,,0.00,Wunderground v.1.15,2013-02-21 14:05:00,
2013-02-21 10:10:00,33.0,31.5,29.52,WNW,300,2.0,2.0,94,0.00,,,0.00,Wunderground v.1.15,2013-02-21 14:10:00,
2013-02-21 10:15:00,33.1,31.6,29.52,WNW,298,2.0,2.0,94,0.00,,,0.00,Wunderground v.1.15,2013-02-21 14:15:00,
2013-02-21 10:25:00,33.2,31.7,29.52,WNW,296,2.0,3.0,94,0.00,,,0.00,Wunderground v.1.15,2013-02-21 14:25:00,
2013-02-21 10:30:00,33.3,31.8,29.52,WNW,296,3.0,4.0,94,0.00,,,0.00,Wunderground v.1.15,2013-02-21 14:30:00,
2013-02-21 10:35:00,33.5,31.7,29.52,NW,322,3.0,4.0,93,0.00,,,0.00,Wunderground v.1.15,2013-02-21 14:35:00,
2013-02-21 10:40:00,33.7,32.2,29.53,WNW,302,3.0,4.0,94,0.00,,,0.00,Wunderground v.1.15,2013-02-21 14:40:00,
2013-02-21 10:45:00,33.8,31.7,29.52,NW,319,2.0,4.0,92,0.00,,,0.00,Wunderground v.1.15,2013-02-21 14:45:00,
2013-02-21 10:50:00,33.8,32.0,29.53,WNW,292,3.0,4.0,93,0.00,,,0.00,Wunderground v.1.15,2013-02-21 14:50:00,
2013-02-21 11:00:00,33.9,32.1,29.53,West,273,3.0,3.0,93,0.00,,,0.00,Wunderground v.1.15,2013-02-21 15:00:00,
2013-02-21 11:10:00,33.8,32.0,29.53,NW,317,3.0,3.0,93,0.00,,,0.00,Wunderground v.1.15,2013-02-21 15:10:00,
2013-02-21 11:15:00,33.9,32.1,29.53,WNW,297,4.0,6.0,93,0.00,,,0.00,Wunderground v.1.15,2013-02-21 15:15:00,
2013-02-21 11:20:00,34.0,32.2,29.53,WNW,296,3.0,3.0,93,0.00,,,0.00,Wunderground v.1.15,2013-02-21 15:20:00,
2013-02-21 11:30:00,34.1,32.3,29.53,West,268,2.0,3.0,93,0.00,,,0.01,Wunderground v.1.15,2013-02-21 15:30:00,
2013-02-21 11:35:00,34.1,32.3,29.53,WNW,287,3.0,3.0,93,0.00,,,0.01,Wunderground v.1.15,2013-02-21 15:35:00,
2013-02-21 11:40:00,34.2,32.4,29.53,WNW,302,2.0,2.0,93,0.00,,,0.01,Wunderground v.1.15,2013-02-21 15:40:00,
2013-02-21 11:45:00,34.1,32.3,29.54,WNW,289,3.0,3.0,93,0.04,,,0.02,Wunderground v.1.15,2013-02-21 15:45:00,
2013-02-21 11:50:00,34.1,32.3,29.54,NNW,348,3.0,3.0,93,0.04,,,0.02,Wunderground v.1.15,2013-02-21 15:50:00,
2013-02-21 11:55:00,34.6,32.8,29.54,NW,315,2.0,3.0,93,0.06,,,0.02,Wunderground v.1.15,2013-02-21 15:55:00,
2013-02-21 12:00:00,35.0,32.9,29.54,NW,314,2.0,2.0,92,0.06,,,0.02,Wunderground v.1.15,2013-02-21 16:00:00,
2013-02-21 12:05:00,35.4,33.0,29.54,NW,319,3.0,3.0,91,0.06,,,0.02,Wunderground v.1.15,2013-02-21 16:05:00,
2013-02-21 12:10:00,35.5,32.9,29.54,WNW,298,3.0,3.0,90,0.04,,,0.03,Wunderground v.1.15,2013-02-21 16:10:00,
2013-02-21 12:15:00,35.2,32.6,29.54,WNW,292,3.0,6.0,90,0.04,,,0.03,Wunderground v.1.15,2013-02-21 16:15:00,
2013-02-21 12:20:00,35.2,32.6,29.54,WNW,291,3.0,3.0,90,0.08,,,0.04,Wunderground v.1.15,2013-02-21 16:20:00,
2013-02-21 12:25:00,35.0,32.4,29.54,West,274,3.0,3.0,90,0.07,,,0.04,Wunderground v.1.15,2013-02-21 16:25:00,
2013-02-21 12:30:00,34.6,32.2,29.54,WNW,292,3.0,3.0,91,0.05,,,0.05,Wunderground v.1.15,2013-02-21 16:30:00,
2013-02-21 12:35:00,34.4,32.0,29.54,WNW,303,3.0,3.0,91,0.05,,,0.05,Wunderground v.1.15,2013-02-21 16:35:00,
2013-02-21 12:40:00,34.4,32.0,29.55,NW,320,3.0,3.0,91,0.05,,,0.05,Wunderground v.1.15,2013-02-21 16:40:00,
2013-02-21 12:45:00,34.4,32.3,29.54,NW,316,2.0,3.0,92,0.04,,,0.06,Wunderground v.1.15,2013-02-21 16:45:00,
2013-02-21 12:50:00,34.5,32.4,29.55,NNW,339,1.0,2.0,92,0.04,,,0.06,Wunderground v.1.15,2013-02-21 16:50:00,
2013-02-21 12:55:00,34.6,32.2,29.55,WNW,301,2.0,3.0,91,0.04,,,0.06,Wunderground v.1.15,2013-02-21 16:55:00,
2013-02-21 13:00:00,34.5,32.4,29.55,WNW,296,3.0,4.0,92,0.04,,,0.06,Wunderground v.1.15,2013-02-21 17:00:00,
2013-02-21 13:05:00,34.6,32.5,29.55,WNW,293,3.0,5.0,92,0.00,,,0.06,Wunderground v.1.15,2013-02-21 17:05:00,
2013-02-21 13:10:00,34.6,32.5,29.55,WNW,293,4.0,4.0,92,0.00,,,0.06,Wunderground v.1.15,2013-02-21 17:10:00,
2013-02-21 13:15:00,34.6,32.5,29.55,WNW,290,4.0,4.0,92,0.00,,,0.06,Wunderground v.1.15,2013-02-21 17:15:00,
2013-02-21 13:20:00,34.7,32.6,29.55,NW,311,3.0,3.0,92,0.00,,,0.06,Wunderground v.1.15,2013-02-21 17:20:00,
2013-02-21 13:25:00,34.8,32.7,29.55,NW,319,3.0,3.0,92,0.04,,,0.07,Wunderground v.1.15,2013-02-21 17:25:00,
2013-02-21 13:30:00,34.6,32.5,29.55,WNW,293,3.0,4.0,92,0.04,,,0.07,Wunderground v.1.15,2013-02-21 17:30:00,
2013-02-21 13:40:00,34.5,32.4,29.55,WNW,298,3.0,4.0,92,0.00,,,0.08,Wunderground v.1.15,2013-02-21 17:40:00,
2013-02-21 13:45:00,34.4,32.3,29.55,NW,318,3.0,4.0,92,0.00,,,0.08,Wunderground v.1.15,2013-02-21 17:45:00,
2013-02-21 13:50:00,34.3,32.5,29.55,WNW,298,4.0,6.0,93,0.00,,,0.08,Wunderground v.1.15,2013-02-21 17:50:00,
2013-02-21 13:55:00,34.3,32.5,29.55,NW,311,4.0,6.0,93,0.00,,,0.08,Wunderground v.1.15,2013-02-21 17:55:00,
2013-02-21 14:00:00,34.4,32.6,29.55,WNW,302,3.0,5.0,93,0.00,,,0.09,Wunderground v.1.15,2013-02-21 18:00:00,
2013-02-21 14:05:00,34.5,32.7,29.55,NW,319,4.0,5.0,93,0.00,,,0.09,Wunderground v.1.15,2013-02-21 18:05:00,
2013-02-21 14:10:00,34.6,32.8,29.55,WNW,301,4.0,4.0,93,0.00,,,0.09,Wunderground v.1.15,2013-02-21 18:10:00,
2013-02-21 14:15:00,34.6,32.8,29.55,NW,314,3.0,4.0,93,0.00,,,0.09,Wunderground v.1.15,2013-02-21 18:15:00,
2013-02-21 14:20:00,34.6,32.8,29.56,WNW,300,3.0,3.0,93,0.00,,,0.09,Wunderground v.1.15,2013-02-21 18:20:00,
2013-02-21 14:25:00,34.4,32.3,29.56,NW,314,4.0,5.0,92,0.00,,,0.09,Wunderground v.1.15,2013-02-21 18:25:00,
2013-02-21 14:30:00,34.4,32.6,29.56,NW,311,4.0,4.0,93,0.00,,,0.09,Wunderground v.1.15,2013-02-21 18:30:00,
2013-02-21 14:35:00,34.5,33.0,29.56,NNW,344,3.0,4.0,94,0.00,,,0.09,Wunderground v.1.15,2013-02-21 18:35:00,
2013-02-21 14:40:00,34.6,32.8,29.56,NW,326,2.0,2.0,93,0.00,,,0.10,Wunderground v.1.15,2013-02-21 18:40:00,
2013-02-21 14:45:00,34.5,32.7,29.57,NNE,15,2.0,2.0,93,0.00,,,0.10,Wunderground v.1.15,2013-02-21 18:45:00,
2013-02-21 14:50:00,34.1,32.0,29.57,North,360,3.0,3.0,92,0.00,,,0.10,Wunderground v.1.15,2013-02-21 18:50:00,
2013-02-21 15:00:00,33.4,31.6,29.57,NNE,13,3.0,4.0,93,0.00,,,0.10,Wunderground v.1.15,2013-02-21 19:00:00,
2013-02-21 15:05:00,33.0,31.2,29.58,NNW,346,4.0,5.0,93,0.00,,,0.10,Wunderground v.1.15,2013-02-21 19:05:00,
2013-02-21 15:10:00,33.0,31.5,29.58,North,5,4.0,4.0,94,0.00,,,0.10,Wunderground v.1.15,2013-02-21 19:10:00,
2013-02-21 15:15:00,32.9,31.4,29.58,North,5,3.0,4.0,94,0.00,,,0.11,Wunderground v.1.15,2013-02-21 19:15:00,
2013-02-21 15:25:00,32.9,31.4,29.58,NNW,344,3.0,4.0,94,0.00,,,0.11,Wunderground v.1.15,2013-02-21 19:25:00,
2013-02-21 15:30:00,32.9,31.4,29.58,NNE,23,4.0,5.0,94,0.00,,,0.11,Wunderground v.1.15,2013-02-21 19:30:00,
2013-02-21 15:35:00,32.7,31.2,29.58,North,5,5.0,9.0,94,0.00,,,0.11,Wunderground v.1.15,2013-02-21 19:35:00,
2013-02-21 15:45:00,32.5,31.0,29.59,NE,40,5.0,6.0,94,0.00,,,0.11,Wunderground v.1.15,2013-02-21 19:45:00,
2013-02-21 15:50:00,32.5,31.2,29.59,North,360,5.0,5.0,95,0.00,,,0.11,Wunderground v.1.15,2013-02-21 19:50:00,
2013-02-21 15:55:00,32.4,30.9,29.59,NE,38,5.0,6.0,94,0.00,,,0.11,Wunderground v.1.15,2013-02-21 19:55:00,
2013-02-21 16:00:00,32.2,30.9,29.59,NNE,24,5.0,5.0,95,0.00,,,0.12,Wunderground v.1.15,2013-02-21 20:00:00,
2013-02-21 16:05:00,32.1,30.8,29.59,North,355,5.0,5.0,95,0.00,,,0.12,Wunderground v.1.15,2013-02-21 20:05:00,
2013-02-21 16:10:00,32.0,30.7,29.60,NNW,346,5.0,5.0,95,0.00,,,0.12,Wunderground v.1.15,2013-02-21 20:10:00,
2013-02-21 16:15:00,32.0,30.7,29.60,North,5,6.0,7.0,95,0.00,,,0.12,Wunderground v.1.15,2013-02-21 20:15:00,
2013-02-21 16:20:00,31.9,30.9,29.60,North,11,6.0,6.0,96,0.00,,,0.12,Wunderground v.1.15,2013-02-21 20:20:00,
2013-02-21 16:25:00,31.7,30.7,29.61,North,5,6.0,6.0,96,0.00,,,0.12,Wunderground v.1.15,2013-02-21 20:25:00,
2013-02-21 16:30:00,31.6,30.6,29.61,NNE,17,7.0,8.0,96,0.00,,,0.12,Wunderground v.1.15,2013-02-21 20:30:00,
2013-02-21 16:35:00,31.5,30.5,29.61,North,5,7.0,9.0,96,0.00,,,0.12,Wunderground v.1.15,2013-02-21 20:35:00,
2013-02-21 16:40:00,31.5,30.5,29.61,North,355,6.0,8.0,96,0.00,,,0.12,Wunderground v.1.15,2013-02-21 20:40:00,
2013-02-21 16:45:00,31.5,30.5,29.62,NNE,13,7.0,8.0,96,0.00,,,0.12,Wunderground v.1.15,2013-02-21 20:45:00,
2013-02-21 16:50:00,31.5,30.5,29.62,NNE,19,7.0,7.0,96,0.00,,,0.12,Wunderground v.1.15,2013-02-21 20:50:00,
2013-02-21 16:55:00,31.5,30.5,29.62,NE,39,7.0,7.0,96,0.00,,,0.12,Wunderground v.1.15,2013-02-21 20:55:00,
2013-02-21 17:00:00,31.4,30.6,29.62,NNE,17,7.0,7.0,97,0.00,,,0.12,Wunderground v.1.15,2013-02-21 21:00:00,
2013-02-21 17:05:00,31.3,30.5,29.63,East,90,6.0,7.0,97,0.00,,,0.12,Wunderground v.1.15,2013-02-21 21:05:00,
2013-02-21 17:10:00,31.3,30.5,29.63,NE,34,6.0,6.0,97,0.00,,,0.12,Wunderground v.1.15,2013-02-21 21:10:00,
2013-02-21 17:15:00,31.2,30.4,29.63,North,9,7.0,7.0,97,0.00,,,0.12,Wunderground v.1.15,2013-02-21 21:15:00,
2013-02-21 17:20:00,31.2,30.4,29.63,North,360,7.0,9.0,97,0.00,,,0.12,Wunderground v.1.15,2013-02-21 21:20:00,
2013-02-21 17:25:00,31.2,30.4,29.64,NE,56,7.0,9.0,97,0.00,,,0.12,Wunderground v.1.15,2013-02-21 21:25:00,
2013-02-21 17:30:00,31.2,30.4,29.64,North,9,7.0,7.0,97,0.00,,,0.12,Wunderground v.1.15,2013-02-21 21:30:00,
2013-02-21 17:35:00,31.1,30.3,29.64,NNE,22,7.0,9.0,97,0.00,,,0.12,Wunderground v.1.15,2013-02-21 21:35:00,
2013-02-21 17:40:00,31.1,30.3,29.64,North,360,8.0,8.0,97,0.00,,,0.12,Wunderground v.1.15,2013-02-21 21:40:00,
2013-02-21 17:45:00,31.0,30.2,29.65,NE,48,7.0,8.0,97,0.00,,,0.12,Wunderground v.1.15,2013-02-21 21:45:00,
2013-02-21 17:50:00,31.0,30.2,29.65,NE,40,8.0,8.0,97,0.00,,,0.12,Wunderground v.1.15,2013-02-21 21:50:00,
2013-02-21 17:55:00,31.0,30.2,29.65,NE,40,8.0,8.0,97,0.00,,,0.12,Wunderground v.1.15,2013-02-21 21:55:00,
2013-02-21 18:00:00,31.0,30.5,29.66,NNE,26,8.0,10.0,98,0.00,,,0.12,Wunderground v.1.15,2013-02-21 22:00:00,
2013-02-21 18:05:00,31.0,30.5,29.66,NW,310,7.0,10.0,98,0.00,,,0.12,Wunderground v.1.15,2013-02-21 22:05:00,
2013-02-21 18:10:00,31.0,30.5,29.66,NNE,12,7.0,11.0,98,0.00,,,0.12,Wunderground v.1.15,2013-02-21 22:10:00,
2013-02-21 18:15:00,30.9,30.4,29.66,NE,34,8.0,11.0,98,0.00,,,0.12,Wunderground v.1.15,2013-02-21 22:15:00,
2013-02-21 18:20:00,30.9,30.4,29.67,NE,37,8.0,8.0,98,0.00,,,0.12,Wunderground v.1.15,2013-02-21 22:20:00,
2013-02-21 18:25:00,30.8,30.3,29.67,ENE,59,8.0,8.0,98,0.00,,,0.12,Wunderground v.1.15,2013-02-21 22:25:00,
2013-02-21 18:30:00,30.8,30.3,29.67,NE,46,9.0,9.0,98,0.00,,,0.12,Wunderground v.1.15,2013-02-21 22:30:00,
2013-02-21 18:35:00,30.8,30.3,29.67,NNE,27,8.0,9.0,98,0.00,,,0.12,Wunderground v.1.15,2013-02-21 22:35:00,
2013-02-21 18:40:00,30.7,30.2,29.68,NNW,346,8.0,12.0,98,0.00,,,0.12,Wunderground v.1.15,2013-02-21 22:40:00,
2013-02-21 18:45:00,30.7,30.2,29.68,NNW,338,8.0,12.0,98,0.00,,,0.12,Wunderground v.1.15,2013-02-21 22:45:00,
2013-02-21 18:50:00,30.6,30.1,29.68,NNW,333,9.0,15.0,98,0.00,,,0.12,Wunderground v.1.15,2013-02-21 22:50:00,
2013-02-21 18:55:00,30.5,30.0,29.69,North,355,9.0,15.0,98,0.00,,,0.12,Wunderground v.1.15,2013-02-21 22:55:00,
2013-02-21 19:05:00,30.5,30.0,29.69,NNE,30,10.0,10.0,98,0.00,,,0.12,Wunderground v.1.15,2013-02-21 23:05:00,
2013-02-21 19:10:00,30.5,30.0,29.70,ENE,57,9.0,9.0,98,0.00,,,0.12,Wunderground v.1.15,2013-02-21 23:10:00,
2013-02-21 19:15:00,30.4,29.9,29.70,NNE,15,9.0,9.0,98,0.00,,,0.12,Wunderground v.1.15,2013-02-21 23:15:00,
2013-02-21 19:20:00,30.4,29.9,29.70,NNW,342,9.0,9.0,98,0.00,,,0.12,Wunderground v.1.15,2013-02-21 23:20:00,
2013-02-21 19:25:00,30.4,29.9,29.71,East,90,10.0,10.0,98,0.00,,,0.12,Wunderground v.1.15,2013-02-21 23:25:00,
2013-02-21 19:35:00,30.4,29.9,29.72,ENE,73,10.0,13.0,98,0.00,,,0.12,Wunderground v.1.15,2013-02-21 23:35:00,
2013-02-21 19:40:00,30.3,29.8,29.72,NNE,21,10.0,10.0,98,0.00,,,0.12,Wunderground v.1.15,2013-02-21 23:40:00,
2013-02-21 19:45:00,30.3,29.8,29.72,North,360,10.0,10.0,98,0.00,,,0.12,Wunderground v.1.15,2013-02-21 23:45:00,
2013-02-21 19:50:00,30.3,29.8,29.72,NNE,17,9.0,11.0,98,0.00,,,0.12,Wunderground v.1.15,2013-02-21 23:50:00,
2013-02-21 19:55:00,30.3,29.8,29.72,North,360,9.0,11.0,98,0.00,,,0.12,Wunderground v.1.15,2013-02-21 23:55:00,
2013-02-21 20:05:00,30.3,29.8,29.73,NE,44,11.0,18.0,98,0.00,,,0.12,Wunderground v.1.15,2013-02-22 00:05:00,
2013-02-21 20:10:00,30.3,29.8,29.73,North,5,10.0,10.0,98,0.00,,,0.12,Wunderground v.1.15,2013-02-22 00:10:00,
2013-02-21 20:15:00,30.3,29.8,29.73,NNE,32,9.0,12.0,98,0.00,,,0.12,Wunderground v.1.15,2013-02-22 00:15:00,
2013-02-21 20:25:00,30.3,29.8,29.74,NNE,25,11.0,14.0,98,0.00,,,0.12,Wunderground v.1.15,2013-02-22 00:25:00,
2013-02-21 20:30:00,30.3,29.8,29.74,North,360,12.0,12.0,98,0.00,,,0.12,Wunderground v.1.15,2013-02-22 00:30:00,
2013-02-21 20:35:00,30.3,29.8,29.75,NE,42,11.0,12.0,98,0.00,,,0.12,Wunderground v.1.15,2013-02-22 00:35:00,
2013-02-21 20:40:00,30.3,29.8,29.75,North,5,11.0,11.0,98,0.00,,,0.12,Wunderground v.1.15,2013-02-22 00:40:00,
2013-02-21 20:45:00,30.3,29.8,29.75,North,5,11.0,14.0,98,0.00,,,0.12,Wunderground v.1.15,2013-02-22 00:45:00,
2013-02-21 20:50:00,30.3,29.8,29.76,NNE,22,11.0,12.0,98,0.00,,,0.12,Wunderground v.1.15,2013-02-22 00:50:00,
2013-02-21 20:55:00,30.3,29.8,29.76,NNE,14,11.0,12.0,98,0.00,,,0.12,Wunderground v.1.15,2013-02-22 00:55:00,
2013-02-21 21:00:00,30.2,29.7,29.76,ENE,61,11.0,11.0,98,0.00,,,0.12,Wunderground v.1.15,2013-02-22 01:00:00,
2013-02-21 21:05:00,30.3,29.8,29.76,NNW,346,11.0,11.0,98,0.00,,,0.12,Wunderground v.1.15,2013-02-22 01:05:00,
2013-02-21 21:10:00,30.2,29.7,29.77,ENE,69,12.0,15.0,98,0.00,,,0.12,Wunderground v.1.15,2013-02-22 01:10:00,
2013-02-21 21:15:00,30.3,29.8,29.76,NW,321,11.0,15.0,98,0.00,,,0.12,Wunderground v.1.15,2013-02-22 01:15:00,
2013-02-21 21:20:00,30.3,29.8,29.77,NNW,338,10.0,10.0,98,0.00,,,0.12,Wunderground v.1.15,2013-02-22 01:20:00,
2013-02-21 21:25:00,30.2,29.7,29.78,NNE,25,10.0,10.0,98,0.00,,,0.12,Wunderground v.1.15,2013-02-22 01:25:00,
2013-02-21 21:30:00,30.3,29.8,29.78,NNW,342,10.0,14.0,98,0.00,,,0.12,Wunderground v.1.15,2013-02-22 01:30:00,
2013-02-21 21:35:00,30.3,29.8,29.78,NE,44,11.0,14.0,98,0.00,,,0.12,Wunderground v.1.15,2013-02-22 01:35:00,
2013-02-21 21:40:00,30.3,29.8,29.78,ENE,68,11.0,18.0,98,0.00,,,0.12,Wunderground v.1.15,2013-02-22 01:40:00,
2013-02-21 21:45:00,30.3,29.8,29.79,North,360,11.0,18.0,98,0.00,,,0.12,Wunderground v.1.15,2013-02-22 01:45:00,
2013-02-21 21:50:00,30.3,29.8,29.79,NE,40,11.0,11.0,98,0.00,,,0.12,Wunderground v.1.15,2013-02-22 01:50:00,
2013-02-21 21:55:00,30.3,29.8,29.80,NE,55,10.0,11.0,98,0.00,,,0.12,Wunderground v.1.15,2013-02-22 01:55:00,
2013-02-21 22:05:00,30.3,29.8,29.80,North,5,11.0,12.0,98,0.00,,,0.12,Wunderground v.1.15,2013-02-22 02:05:00,
2013-02-21 22:10:00,30.4,29.9,29.81,NNW,343,11.0,11.0,98,0.00,,,0.12,Wunderground v.1.15,2013-02-22 02:10:00,
2013-02-21 22:15:00,30.4,29.9,29.81,NE,35,12.0,17.0,98,0.00,,,0.12,Wunderground v.1.15,2013-02-22 02:15:00,
2013-02-21 22:25:00,30.5,30.0,29.82,NE,35,10.0,11.0,98,0.00,,,0.12,Wunderground v.1.15,2013-02-22 02:25:00,
2013-02-21 22:30:00,30.5,30.0,29.82,NE,51,10.0,12.0,98,0.00,,,0.12,Wunderground v.1.15,2013-02-22 02:30:00,
2013-02-21 22:35:00,30.5,30.0,29.82,North,360,11.0,12.0,98,0.00,,,0.12,Wunderground v.1.15,2013-02-22 02:35:00,
2013-02-21 22:40:00,30.4,29.9,29.82,NNE,23,12.0,14.0,98,0.00,,,0.12,Wunderground v.1.15,2013-02-22 02:40:00,
2013-02-21 22:45:00,30.4,29.9,29.83,North,10,12.0,14.0,98,0.00,,,0.12,Wunderground v.1.15,2013-02-22 02:45:00,
2013-02-21 22:55:00,30.4,29.9,29.83,North,9,10.0,14.0,98,0.00,,,0.12,Wunderground v.1.15,2013-02-22 02:55:00,
2013-02-21 23:00:00,30.4,29.9,29.83,NNE,30,10.0,10.0,98,0.00,,,0.12,Wunderground v.1.15,2013-02-22 03:00:00,
2013-02-21 23:05:00,30.3,29.8,29.84,NE,38,11.0,11.0,98,0.00,,,0.12,Wunderground v.1.15,2013-02-22 03:05:00,
2013-02-21 23:10:00,30.4,29.9,29.84,NE,39,11.0,11.0,98,0.00,,,0.12,Wunderground v.1.15,2013-02-22 03:10:00,
2013-02-21 23:15:00,30.4,29.9,29.85,NNE,33,11.0,11.0,98,0.00,,,0.12,Wunderground v.1.15,2013-02-22 03:15:00,
2013-02-21 23:25:00,30.3,29.8,29.85,NE,34,10.0,11.0,98,0.00,,,0.12,Wunderground v.1.15,2013-02-22 03:25:00,
2013-02-21 23:30:00,30.3,29.8,29.85,NE,46,10.0,15.0,98,0.00,,,0.12,Wunderground v.1.15,2013-02-22 03:30:00,
2013-02-21 23:35:00,30.3,29.8,29.86,NE,40,10.0,15.0,98,0.00,,,0.12,Wunderground v.1.15,2013-02-22 03:35:00,
2013-02-21 23:45:00,30.3,29.8,29.86,NNE,21,9.0,10.0,98,0.00,,,0.12,Wunderground v.1.15,2013-02-22 03:45:00,
2013-02-21 23:50:00,30.2,29.7,29.87,North,9,8.0,8.0,98,0.00,,,0.12,Wunderground v.1.15,2013-02-22 03:50:00,